Regional Weather Roundup
Issued by NWS Charleston, SC

Current Version | Previous Version | Graphics & Text | Print | Product List | Glossary On
Versions: 1 2 3 4 5 6 7 8 9 10 11 12 13 14 15 16 17 18 19 20 21 22 23 24 25 26 27 28 29 30 31 32 33 34 35 36 37 38 39 40 41 42 43 44 45 46 47 48 49 50
000
ASUS42 KCHS 190627
RWRCHS

Regional Weather Roundup
National Weather Service Charleston SC
200 AM EDT THU APR 19 2018

NOTE: "fair" indicates few or no clouds below 12,000 feet with no
significant weather and/or obstructions to visibility.

Not all stations are quality controlled. Use data with caution,
especially dewpoint observations.

SCZ027-030-031-034>040-042>050-190700-
...Southeast South Carolina...

CITY           SKY/WX    TMP DP  RH WIND       PRES   REMARKS
N Charleston   FAIR      69  48  47 SW12      29.90F
6HR MIN TEMP:  63; 6HR MAX TEMP:  70;

Waterfront Prk   N/A     70  52  52 SW8G15    29.76F
Mount Pleasant FAIR      70  48  46 SW7       29.90F
Johns Island   FAIR      68  54  60 SW9       29.91F
Pinopolis        N/A     70  54  56 SW12      29.80S
Moncks Corner  FAIR      66  45  45 SW12      29.89S
Summerville    FAIR      63  50  63 SW6       29.91S
Beaufort MCAS  FAIR      65  47  52 SW9       29.93F
6HR MIN TEMP:  65; 6HR MAX TEMP:  72;

Beaufort Arpt  FAIR      66  45  45 SW10      29.93S
Hilton Head Is FAIR      68  45  42 SW9G16    29.95S
Walterboro     FAIR      66  43  42 SW9       29.92S
Allendale      FAIR      66  50  55 CALM      29.91F

...Southern Midlands and Pee Dee...

CITY           SKY/WX    TMP DP  RH WIND       PRES   REMARKS
Georgetown     FAIR      64  50  59 SW9       29.89F
Kingstree      FAIR      63  50  63 CALM      29.86F
Orangeburg     FAIR      64  49  57 SW7       29.88F
6HR MIN TEMP:  63; 6HR MAX TEMP:  78;

Barnwell       FAIR      66  50  55 SW9       29.90F
Aiken          FAIR      66  50  55 SW10      29.91S
Manning        FAIR      66  45  45 SW12G17   29.87F
Columbia       FAIR      72  52  49 SW8       29.85S
6HR MIN TEMP:  72; 6HR MAX TEMP:  82;

Sumter         FAIR      71  48  43 SW15G24   29.81F
6HR MIN TEMP:  71; 6HR MAX TEMP:  78;

Florence       FAIR      69  51  52 SW14      29.82F
6HR MIN TEMP:  69; 6HR MAX TEMP:  79;

Myrtle Beach   FAIR      71  49  45 SW10      29.87F
N Myrtle Beach FAIR      63  56  78 SW9       29.85F
6HR MIN TEMP:  62; 6HR MAX TEMP:  66;


$$

GAZ063-065-086>088-099>101-113>116-118-119-134>141-150-190700-
...Southeast Georgia...

CITY           SKY/WX    TMP DP  RH WIND       PRES   REMARKS
Savannah Arpt  FAIR      67  40  37 SW10      29.96R
6HR MIN TEMP:  67; 6HR MAX TEMP:  81;

Hunter AAF     FAIR      65  40  40 SW7       29.94R
6HR MIN TEMP:  64; 6HR MAX TEMP:  79;

Fort Stewart   FAIR      63  42  46 SW9       29.95S
6HR MIN TEMP:  63; 6HR MAX TEMP:  80;

Statesboro     FAIR      69  52  54 W10G18    29.95S
Sylvania       FAIR      70  55  60 W9        29.94S
Claxton        FAIR      68  53  58 CALM      29.97S

...CSRA, Central and far Southeast Georgia...

CITY           SKY/WX    TMP DP  RH WIND       PRES   REMARKS
Thomson        FAIR      70  54  58 W12G21    29.94S
Augusta-Bush   FAIR      71  51  49 SW12G20   29.89S
6HR MIN TEMP:  70; 6HR MAX TEMP:  78; 6HR PCP: TRACE;

Augusta-Daniel FAIR      73  51  46 SW9       29.90S
Swainsboro     FAIR      68  54  60 W9        29.96S
Vidalia        FAIR      68  61  77 SW9       29.97F
Eastman        FAIR      69  53  56 W10G17    30.01S
Hazlehurst     FAIR      67  60  77 SW8       29.98S
Alma           FAIR      66  59  78 W9        30.01R
6HR MIN TEMP:  65; 6HR MAX TEMP:  79;

Waycross       FAIR      63  60  90 W8        30.02R
Jesup          FAIR      66  52  59 W7        30.00R
Baxley         FAIR      63  61  94 SW6       30.00S
Brunswick      FAIR      64  46  52 SW9       29.99F
Saint Simons   FAIR      66  45  46 SW14      29.99S
6HR MIN TEMP:  66; 6HR MAX TEMP:  77;


$$

SCZ027-028-034-036>038-045-046-048>050-GAZ119-141-190700-
...Lake and Supplemental Coastal Observations...

STATION/POSITION TIME  TEMP    WIND        PRES    WAVE   SWELL
                       AIR SEA DIR/SP/G            HT/PER HT/PER/DIR
                 (UTC) (F)     (DEG/KT/KT) (MB)    (FT/S) (FT/S/D)
Winyah Bay       0545   68     230/ 10     1012.0S
Lake Murray      0520   72     230/ 10/ 12 1010.2
ACE Basin NERRS  0545   68     350/  1       N/A
Fort Pulaski     0600   65 65  230/  4/  5 1014.6
Sapelo Island    0600   66     220/ 15     1015.0

$$

ANZ835-935-AMZ111-154-330-350-352-354-370-450-454-472-190700-
...C-MAN and Buoy Observations...

STATION/POSITION TIME  TEMP    WIND        PRES    WAVE   SWELL
                       AIR SEA DIR/SP/G            HT/PER HT/PER/DIR
                 (UTC) (F)     (DEG/KT/KT) (MB)    (FT/S) (FT/S/D)
Buoy 41004       0610   70     220/ 21/ 27 1012.8
Buoy 41008       0550   69 65  200/ 17/ 21 1014.4S   4/ 4   2/180/10
Folly Beach CMAN 0600   67     230/ 14/ 18 1013.5F
Capers Nearshore 0608   67 63  240/ 17/ 21 1012.7F
Fripp Nearshore  0608   66 63  230/ 16/ 19 1013.2S


STATION/POSITION TIME  TEMP    WIND        PRES    WAVE   SWELL
                       AIR SEA DIR/SP/G            HT/PER HT/PER/DIR
                 (UTC) (F)     (DEG/KT/KT) (MB)    (FT/S) (FT/S/D)
5E St. Marys GA  0600      65                N/A     2/ 4
Frying Pan Buoy  0610   71 67  220/ 23/ 31 1011.5
Buoy 41025       0610   69     230/ 23/ 33 1009.2
Cape Lookout NC  0600          230/ 17/ 22 1009.2F
Buoy 41002       0610   71 72  210/ 23/ 29 1015.0
Buoy 41010       0610   73 73  180/ 14/ 17 1018.5
St Augustine FL  0600   65 67  220/  7/  9 1018.1F


$$




USA.gov is the U.S. government's official web portal to all federal, state and local government web resources and services.